Location: Newark
(45.4422°N, 16.2769°E)
Time: 22:29:15
(UTC+00:00)

S-56A Canister/Altair - Pass Details

Date: 14 December 2019
Orbit: 634 x 2498 km, 38.9° (Epoch: 23 January)

Event Time Altitude Azimuth Distance (km) Brightness Sun altitude
Rises 05:41:59 0° 191° (SSW) 5,016 11.9 -7.7°
Reaches altitude 10° 05:45:59 10° 178° (S) 4,314 11.8 -7.1°
Maximum altitude 05:54:40 23° 132° (SE) 3,828 12.2 -5.7°
Drops below altitude 10° 06:04:47 10° 88° (E) 5,125 12.8 -4.1°
Sets 06:10:05 0° 76° (ENE) 6,181 12.9 -3.3°
